Location: Unspecified
(0.0000°N, 0.0000°E)
Time: 06:10:08
(UTC+00:00)

Transit 2A - Pass Details

Date: 26 May 2019
Orbit: 598 x 960 km, 66.7° (Epoch: 15 September)

Event Time Altitude Azimuth Distance (km) Brightness Sun altitude
Exits shadow 05:13:12 - 200° (SSW) 3,294 8.9 -10.2°
Rises 05:13:17 0° 200° (SSW) 3,265 8.9 -10.2°
Reaches altitude 10° 05:15:36 10° 200° (SSW) 2,389 8.2 -9.7°
Maximum altitude 05:21:09 90° 111° (ESE) 869 6.3 -8.4°
Drops below altitude 10° 05:27:14 10° 20° (NNE) 2,601 9.4 -6.9°
Sets 05:29:50 0° 20° (NNE) 3,575 10.1 -6.3°
